Location: Lafig�re
(44.4503°N, 4.0357°E)
Time: 04:40:12
(UTC+00:00)

Transit 2A Rocket - Pass Details

Date: 24 June 2021
Orbit: 590 x 913 km, 66.7° (Epoch: 26 July)

Event Time Altitude Azimuth Distance (km) Brightness Sun altitude
Exits shadow 23:47:59 23° 260° (W) 1,279 6.0 -22.2°
Maximum altitude 23:50:02 36° 310° (NW) 958 5.8 -22.2°
Drops below altitude 10° 23:54:12 10° 18° (NNE) 2,013 8.2 -22.1°
Sets 23:56:42 0° 27° (NNE) 2,968 9.2 -22.1°
